Regional Weather Roundup
Issued by NWS

Home | Current Version | Previous Version | Graphics & Text | Print | Product List | Glossary On
Versions: 1 2 3 4 5 6 7 8 9 10 11 12 13 14 15 16 17 18 19 20 21 22 23 24 25 26 27 28 29 30 31 32 33 34 35 36 37 38 39 40 41 42 43 44 45 46 47 48 49 50
000
ASUS45 KPSR 221200
RWRAZ

PRELIMINARY ARIZONA REGIONAL HOURLY WEATHER ROUNDUP
NATIONAL WEATHER SERVICE PHOENIX AZ
500 AM MST MON DEC 22 2014

NOTE: FAIR INDICATES FEW OR NO CLOUDS BELOW 12,000 FEET WITH NO
SIGNIFICANT WEATHER AND/OR OBSTRUCTIONS TO VISIBILITY.

AZZ001>003-036-221300-
NORTHWEST ARIZONA

CITY           SKY/WX    TMP DP  RH WIND       PRES   REMARKS
BULLHEAD CITY  CLEAR     46  43  87 CALM      30.06F
KINGMAN        CLEAR     39  34  82 SE10      30.08S WCI  32
6HR MIN TEMP:  34; 6HR MAX TEMP:  40;

$$

AZZ004>008-015-016-018-221300-
NORTH CENTRAL ARIZONA

CITY           SKY/WX    TMP DP  RH WIND       PRES   REMARKS
GRAND CANYON   PTCLDY    24  23  96 CALM      30.09F
6HR MIN TEMP:  24; 6HR MAX TEMP:  40;

PRESCOTT       MOCLDY    43  32  65 W6        30.07F
6HR MIN TEMP:  38; 6HR MAX TEMP:  45;

FLAGSTAFF      MOCLDY    42  30  62 VRB3      30.07F
6HR MIN TEMP:  38; 6HR MAX TEMP:  43;

PAYSON         MOCLDY    41  34  75 W5        30.04F
PAGE           PTCLDY    37  31  78 W5        29.98S WCI  33
6HR MIN TEMP:  36; 6HR MAX TEMP:  40;

$$

AZZ009>014-017-221300-
NORTHEAST ARIZONA

CITY           SKY/WX    TMP DP  RH WIND       PRES   REMARKS
WINSLOW        NOT AVBL
SAINT JOHNS    MOCLDY    37  31  78 S6        30.02F WCI  32
6HR MIN TEMP:  31; 6HR MAX TEMP:  39;

WINDOW ROCK    MOCLDY    34  29  82 S8        30.00F WCI  27
6HR MIN TEMP:  32; 6HR MAX TEMP:  40;

SHOW LOW       MOCLDY    32  27  80 CALM      30.08S
$$

AZZ023-221300-
GREATER PHOENIX AREA

CITY           SKY/WX    TMP DP  RH WIND       PRES   REMARKS
PHOENIX        MOCLDY    49  43  80 E6        30.00S
6HR MIN TEMP:  49; 6HR MAX TEMP:  56;

LUKE AFB       MOCLDY    45  45 100 NE5       30.01S
DEER VALLEY    MOCLDY    44  41  89 CALM      30.01S
6HR MIN TEMP:  44; 6HR MAX TEMP:  50;

SCOTTSDALE     MOCLDY    47  41  80 CALM      30.02S
6HR MIN TEMP:  46; 6HR MAX TEMP:  51;

MESA-GATEWAY   CLEAR     43  39  87 E5        30.03S
$$

AZZ027-028-221300-
SOUTHWEST MARICOPA COUNTY AND PINAL COUNTY

CITY           SKY/WX    TMP DP  RH WIND       PRES   REMARKS
CASA GRANDE    MOCLDY    43  39  87 MISG      30.01F
6HR MIN TEMP:  43; 6HR MAX TEMP:  46;

$$

AZZ503-504-507>509-221300-
SOUTHEAST ARIZONA

CITY           SKY/WX    TMP DP  RH WIND       PRES   REMARKS
TUCSON         PTCLDY    42  37  82 SE7       30.04F
6HR MIN TEMP:  42; 6HR MAX TEMP:  48;

DAVIS-MONTHAN  MOCLDY    41  37  86 SE7       30.02F
6HR MIN TEMP:  41; 6HR MAX TEMP:  44;

NOGALES        MOCLDY    37  32  82 N3        30.03F
6HR MIN TEMP:  37; 6HR MAX TEMP:  42;

SIERRA VISTA   MOCLDY    39  32  76 CALM      30.04S
6HR MIN TEMP:  38; 6HR MAX TEMP:  46;

DOUGLAS        PTCLDY    30  27  88 CALM      30.04S
6HR MIN TEMP:  30; 6HR MAX TEMP:  41;

SAFFORD        MOCLDY    39  35  86 SE7       29.99S WCI  34
6HR MIN TEMP:  38; 6HR MAX TEMP:  48;

$$

AZZ020-021-025-026-031-221300-
SOUTHWEST ARIZONA

CITY           SKY/WX    TMP DP  RH WIND       PRES   REMARKS
YUMA           MOCLDY   N/A  40 N/A N3        30.01F
$$

CAZ031-033-041-043-047-048-061-221300-
SOUTHERN CALIFORNIA

CITY           SKY/WX    TMP DP  RH WIND       PRES   REMARKS
DOWNTOWN L.A.  CLEAR     51  48  89 CALM      30.04S FOG
6HR MIN TEMP:  50; 6HR MAX TEMP:  57;

L.A. AIRPORT   PTCLDY    52  51  97 CALM      30.04S FOG
6HR MIN TEMP:  52; 6HR MAX TEMP:  60;

SAN DIEGO      PTCLDY    54  51  90 CALM      30.03F
6HR MIN TEMP:  54; 6HR MAX TEMP:  60;

BURBANK        CLEAR     50  45  83 N5        30.03S
6HR MIN TEMP:  50; 6HR MAX TEMP:  57;

ONTARIO        PTCLDY    48  43  82 VRB3      30.04S HAZE
6HR MIN TEMP:  48; 6HR MAX TEMP:  56;

RIVERSIDE      CLEAR     51  46  83 VRB3      30.05R
6HR MIN TEMP:  48; 6HR MAX TEMP:  55;

PALM SPRINGS   CLEAR     53  45  74 NW6       30.04S
6HR MIN TEMP:  50; 6HR MAX TEMP:  57;

EL CENTRO NAS  CLEAR     45  41  86 W5        30.01F
6HR MIN TEMP:  45; 6HR MAX TEMP:  54;

IMPERIAL       CLEAR     46  43  89 W5        30.01S
6HR MIN TEMP:  46; 6HR MAX TEMP:  54;

BLYTHE         CLEAR     46  45  96 CALM      30.03F
6HR MIN TEMP:  46; 6HR MAX TEMP:  51;

NEEDLES        CLEAR     47  39  74 CALM      30.04F
6HR MIN TEMP:  46; 6HR MAX TEMP:  50;

$$

NVZ020-UTZ003-221300-
SOUTHERN NEVADA-UTAH

CITY           SKY/WX    TMP DP  RH WIND       PRES   REMARKS
LAS VEGAS      NOT AVBL
SALT LAKE CITY LGT RAIN  39  38  96 S6        30.01F FOG     WCI  35
6HR MIN TEMP:  39; 6HR MAX TEMP:  44; 6HR PCP:  0.03;

$$

NMZ009-TXZ055-221300-
NEW MEXICO-WEST TEXAS

CITY           SKY/WX    TMP DP  RH WIND       PRES   REMARKS
ALBUQUERQUE    MOCLDY    35  29  78 SE3       29.91S
6HR MIN TEMP:  32; 6HR MAX TEMP:  40;

EL PASO        MOCLDY    54  31  41 NW10      29.89F
6HR MIN TEMP:  52; 6HR MAX TEMP:  57;

$$


........................KEY........................
SKY/WX - SKY CONDITION/WEATHER
TMP    - TEMPERATURE IN FAHRENHEIT
DP     - DEW POINT IN FAHRENHEIT
RH     - RELATIVE HUMIDITY IN PERCENT
WIND   - DIRECTION AND SPEED IN MILES PER HOUR (MPH)
VRB    - VARIABLE WIND DIRECTION
PRES   - MEAN SEA LEVEL PRESSURE IN INCHES OF MERCURY
         F - FALLING PRESSURE   R - RISING PRESSURE
         S - STEADY PRESSURE
VSB    - VISIBILITY IN MILES
HX     - HEAT INDEX IN FAHRENHEIT
WCI    - WIND CHILL INDEX IN FAHRENHEIT
TC     - TEMPERATURE IN CELSIUS WHICH IS ALSO KNOWN AS
         TEMPERATURE IN CENTIGRADE
AFB    - AIR FORCE BASE
         LUKE AFB IS LUKE AIR FORCE BASE
         DAVIS-MONTHAN IS DAVIS-MONTHAN AIR FORCE BASE
NAS    - NAVAL AIR STATION
         EL CENTRO NAS IS EL CENTRO NAVAL AIR STATION
N/A    - NOT AVAILABLE


USA.gov is the U.S. government's official web portal to all federal, state and local government web resources and services.